Regional Weather Roundup
Issued by NWS

Home | Current Version | Previous Version | Text Only | Print | Product List | Glossary On
Versions: 1 2 3 4 5 6 7 8 9 10 11 12 13 14 15 16 17 18 19 20 21 22 23 24 25 26 27 28 29 30 31 32 33 34 35 36 37 38 39 40 41 42 43 44 45 46 47 48 49 50
000
ASUS45 KPSR 252210
RWRAZ

ARIZONA REGIONAL HOURLY WEATHER ROUNDUP
NATIONAL WEATHER SERVICE PHOENIX AZ
300 PM MST TUE NOV 25 2014

NOTE: FAIR INDICATES FEW OR NO CLOUDS BELOW 12,000 FEET WITH NO
SIGNIFICANT WEATHER AND/OR OBSTRUCTIONS TO VISIBILITY.

AZZ001>003-036-252300-
NORTHWEST ARIZONA

CITY           SKY/WX    TMP DP  RH WIND       PRES   REMARKS
BULLHEAD CITY  SUNNY     66  16  14 CALM      30.36F
KINGMAN        SUNNY     64   2   8 N6        30.38F
$$

AZZ004>008-015-016-018-252300-
NORTH CENTRAL ARIZONA

CITY           SKY/WX    TMP DP  RH WIND       PRES   REMARKS
GRAND CANYON   SUNNY     49   6  17 W9G17     30.40F
PRESCOTT       SUNNY     60  -4   7 NW12      30.36F
FLAGSTAFF      SUNNY     52   4  14 VRB7G18   30.38F
PAYSON         SUNNY     55  -9   7 SW10      30.37F
PAGE           SUNNY     50   5  16 E5        30.34F
$$

AZZ009>014-017-252300-
NORTHEAST ARIZONA

CITY           SKY/WX    TMP DP  RH WIND       PRES   REMARKS
WINSLOW        SUNNY     55  -3   9 N5        30.36F
SAINT JOHNS    SUNNY     49  -5  10 NW10      30.37S
SHOW LOW       SUNNY     48  -6  10 N10       30.40S
$$

AZZ023-252300-
GREATER PHOENIX AREA

CITY           SKY/WX    TMP DP  RH WIND       PRES   REMARKS
PHOENIX        SUNNY     69   3   7 VRB3      30.31F
BUCKEYE          N/A     66   5   9 S6        30.33F
GLENDALE       SUNNY     66   0   7 CALM      30.33F
LUKE AFB       SUNNY     67   2   7 VRB3      30.31F
DEER VALLEY    SUNNY     65  -4   6 W8        30.32F
SCOTTSDALE     SUNNY     66  -4   6 W7        30.33F
MESA-FALCON    SUNNY     64  -2   7 W6        30.32F
CHANDLER       SUNNY     66   0   7 CALM      30.32F
$$

AZZ027-028-252300-
SOUTHWEST MARICOPA COUNTY AND PINAL COUNTY

CITY           SKY/WX    TMP DP  RH WIND       PRES   REMARKS
CASA GRANDE    SUNNY     64   9  11 CALM      30.33F
GILA BEND      CLEAR     68  -2   6 VRB3      30.32F
$$

AZZ503-504-507>509-252300-
SOUTHEAST ARIZONA

CITY           SKY/WX    TMP DP  RH WIND       PRES   REMARKS
TUCSON         SUNNY     65   0   7 N12       30.33F
DAVIS-MONTHAN  SUNNY     62  -3   7 NW9       30.31F
RYAN FIELD       N/A     73  21  14 NW13      30.34F
NOGALES        SUNNY     65   1   8 W13       30.30F
SIERRA VISTA   SUNNY     57  -8   7 CALM      30.34F
DOUGLAS        SUNNY     60   3  10 N7        30.32F
SAFFORD        SUNNY     57  -3   8 CALM      30.32F
$$

AZZ020-021-025-026-031-252300-
SOUTHWEST ARIZONA

CITY           SKY/WX    TMP DP  RH WIND       PRES   REMARKS
YUMA           SUNNY     74   2   6 NE6       30.33F
$$

CAZ031-033-041-043-047-048-061-252300-
SOUTHERN CALIFORNIA

CITY           SKY/WX    TMP DP  RH WIND       PRES   REMARKS
DOWNTOWN L.A.  SUNNY     78  18  10 CALM      30.26F
L.A. AIRPORT   SUNNY     75  25  15 W10       30.27F
SAN DIEGO      SUNNY     76  12   8 NW8       30.27F
BURBANK        SUNNY     79  14   8 SE5       30.26F
ONTARIO        SUNNY     78   9   7 VRB6      30.28F
RIVERSIDE      SUNNY     79   0   4 VRB3      30.27F
PALM SPRINGS   SUNNY     74  13   9 SE7       30.35F
EL CENTRO NAS  SUNNY     73  11   9 CALM      30.32F
IMPERIAL       SUNNY     74   9   8 VRB3      30.32F
BLYTHE         SUNNY     70  11  10 SE3       30.33F
NEEDLES        SUNNY     68  11  11 CALM      30.34F
$$

NVZ020-UTZ003-252300-
SOUTHERN NEVADA-UTAH

CITY           SKY/WX    TMP DP  RH WIND       PRES   REMARKS
LAS VEGAS      SUNNY     61  11  14 S5        30.33F
SALT LAKE CITY PTSUNNY   44  26  49 SE10      30.31F
$$

NMZ009-TXZ055-252300-
NEW MEXICO-WEST TEXAS

CITY           SKY/WX    TMP DP  RH WIND       PRES   REMARKS
ALBUQUERQUE    MOSUNNY   48   3  15 W10       30.28F
EL PASO        SUNNY     54   8  16 W16G22    30.30F
$$


........................KEY........................
SKY/WX - SKY CONDITION/WEATHER
TMP    - TEMPERATURE IN FAHRENHEIT
DP     - DEW POINT IN FAHRENHEIT
RH     - RELATIVE HUMIDITY IN PERCENT
WIND   - DIRECTION AND SPEED IN MILES PER HOUR (MPH)
VRB    - VARIABLE WIND DIRECTION
PRES   - MEAN SEA LEVEL PRESSURE IN INCHES OF MERCURY
         F - FALLING PRESSURE   R - RISING PRESSURE
         S - STEADY PRESSURE
VSB    - VISIBILITY IN MILES
HX     - HEAT INDEX IN FAHRENHEIT
WCI    - WIND CHILL INDEX IN FAHRENHEIT
TC     - TEMPERATURE IN CELSIUS WHICH IS ALSO KNOWN AS
         TEMPERATURE IN CENTIGRADE
AFB    - AIR FORCE BASE
         LUKE AFB IS LUKE AIR FORCE BASE
         DAVIS-MONTHAN IS DAVIS-MONTHAN AIR FORCE BASE
NAS    - NAVAL AIR STATION
         EL CENTRO NAS IS EL CENTRO NAVAL AIR STATION
N/A    - NOT AVAILABLE



USA.gov is the U.S. government's official web portal to all federal, state and local government web resources and services.